2023/09/28 00:00:00, 5.8,21.1
2023/09/28 00:10:00, 6.1,21.1
2023/09/28 00:20:00, 6.3,21.2
2023/09/28 00:30:00, 6.6,21.2
2023/09/28 00:40:00, 6.9,21.2
2023/09/28 00:50:00, 7.3,21.2
2023/09/28 01:00:00, 7.5,21.1
2023/09/28 01:10:00, 7.6,20.9
2023/09/28 01:20:00, 7.9,21.0
2023/09/28 01:30:00, 7.8,20.7
2023/09/28 01:40:00, 7.6,20.9
2023/09/28 01:50:00, 7.3,20.8
2023/09/28 02:00:00, 7.3,20.7
2023/09/28 02:10:00, 7.3,20.8
2023/09/28 02:20:00, 7.3,20.7
2023/09/28 02:30:00, 7.3,20.8
2023/09/28 02:40:00, 7.2,20.7
2023/09/28 02:50:00, 7.1,20.6
2023/09/28 03:00:00, 7.1,20.5
2023/09/28 03:10:00, 7.1,20.4
2023/09/28 03:20:00, 7.2,20.4
2023/09/28 03:30:00, 7.3,20.6
2023/09/28 03:40:00, 7.1,20.5
2023/09/28 03:50:00, 7.0,20.4
2023/09/28 04:00:00, 6.8,20.4
2023/09/28 04:10:00, 6.6,20.4
2023/09/28 04:20:00, 6.5,20.4
2023/09/28 04:30:00, 6.4,20.4
2023/09/28 04:40:00, 6.5,20.3
2023/09/28 04:50:00, 6.5,20.4
2023/09/28 05:00:00, 6.5,20.2
2023/09/28 05:10:00, 6.4,20.2
2023/09/28 05:20:00, 6.3,20.1
2023/09/28 05:30:00, 6.2,20.0
2023/09/28 05:40:00, 6.1,20.2
2023/09/28 05:50:00, 6.2,20.3
2023/09/28 06:00:00, 6.1,20.3
2023/09/28 06:10:00, 6.2,20.3
2023/09/28 06:20:00, 6.3,20.4
2023/09/28 06:30:00, 6.3,20.4
2023/09/28 06:40:00, 6.1,20.4
2023/09/28 06:50:00, 6.0,20.9
2023/09/28 07:00:00, 6.1,21.4
2023/09/28 07:10:00, 6.3,23.1
2023/09/28 07:20:00, 6.2,24.2
2023/09/28 07:30:00, 5.7,25.8
2023/09/28 07:40:00, 5.7,27.6
2023/09/28 07:50:00, 5.9,28.1
2023/09/28 08:00:00, 5.9,29.3
2023/09/28 08:10:00, 5.7,29.8
2023/09/28 08:20:00, 5.4,30.8
2023/09/28 08:30:00, 5.5,27.9
2023/09/28 08:40:00, 5.8,30.3
2023/09/28 08:50:00, 6.1,31.1
2023/09/28 09:00:00, 6.2,32.3
2023/09/28 09:10:00, 6.2,28.8
2023/09/28 09:20:00, 6.3,27.6
2023/09/28 09:30:00, 6.3,30.0
2023/09/28 09:40:00, 6.3,30.2
2023/09/28 09:50:00, 6.6,30.2
2023/09/28 10:00:00, 6.7,28.4
2023/09/28 10:10:00, 6.8,26.4
2023/09/28 10:20:00, 7.3,27.9
2023/09/28 10:30:00, 7.6,27.7
2023/09/28 10:40:00, 7.2,26.8
2023/09/28 10:50:00, 6.8,27.1
2023/09/28 11:00:00, 7.1,26.7
2023/09/28 11:10:00, 7.3,25.6
2023/09/28 11:20:00, 7.4,25.3
2023/09/28 11:30:00, 7.4,25.1
2023/09/28 11:40:00, 7.5,25.3
2023/09/28 11:50:00, 7.3,24.9
2023/09/28 12:00:00, 7.3,24.6
2023/09/28 12:10:00, 7.1,24.5
2023/09/28 12:20:00, 7.2,24.2
2023/09/28 12:30:00, 7.2,24.2
2023/09/28 12:40:00, 7.4,24.2
2023/09/28 12:50:00, 7.2,24.0
2023/09/28 13:00:00, 7.0,24.6
2023/09/28 13:10:00, 7.3,25.1
2023/09/28 13:20:00, 7.4,24.0
2023/09/28 13:30:00, 7.4,24.0
2023/09/28 13:40:00, 7.6,24.4
2023/09/28 13:50:00, 7.6,24.3
2023/09/28 14:00:00, 7.0,23.7
2023/09/28 14:10:00, 7.4,24.0
2023/09/28 14:20:00, 7.6,24.0
2023/09/28 14:30:00, 7.3,24.0
2023/09/28 14:40:00, 7.2,24.0
2023/09/28 14:50:00, 7.1,24.0
2023/09/28 15:00:00, 7.1,23.9
2023/09/28 15:10:00, 7.1,23.9
2023/09/28 15:20:00, 7.3,24.0
2023/09/28 15:30:00, 6.9,23.7
2023/09/28 15:40:00, 6.0,23.1
2023/09/28 15:50:00, 6.3,22.8
2023/09/28 16:00:00, 6.5,22.7
2023/09/28 16:10:00, 6.3,22.4
2023/09/28 16:20:00, 6.2,22.6
2023/09/28 16:30:00, 6.1,22.3
2023/09/28 16:40:00, 6.0,22.3
2023/09/28 16:50:00, 6.0,22.1
2023/09/28 17:00:00, 6.0,22.1
2023/09/28 17:10:00, 6.0,22.1
2023/09/28 17:20:00, 5.9,21.8
2023/09/28 17:30:00, 5.7,21.8
2023/09/28 17:40:00, 5.4,21.5
2023/09/28 17:50:00, 5.4,21.6
2023/09/28 18:00:00, 5.4,21.1
2023/09/28 18:10:00, 5.4,21.4
2023/09/28 18:20:00, 5.3,20.9
2023/09/28 18:30:00, 5.3,20.8
2023/09/28 18:40:00, 5.3,20.6
2023/09/28 18:50:00, 5.3,20.7
2023/09/28 19:00:00, 5.3,20.8
2023/09/28 19:10:00, 5.3,20.8
2023/09/28 19:20:00, 5.3,20.7
2023/09/28 19:30:00, 5.3,20.4
2023/09/28 19:40:00, 5.1,20.3
2023/09/28 19:50:00, 5.2,20.3
2023/09/28 20:00:00, 5.3,19.9
2023/09/28 20:10:00, 5.3,20.0
2023/09/28 20:20:00, 5.3,20.0
2023/09/28 20:30:00, 5.3,20.0
2023/09/28 20:40:00, 5.3,19.7
2023/09/28 20:50:00, 5.3,19.8
2023/09/28 21:00:00, 5.3,19.7
2023/09/28 21:10:00, 5.4,19.5
2023/09/28 21:20:00, 5.6,19.3
2023/09/28 21:30:00, 6.0,19.4
2023/09/28 21:40:00, 6.3,19.5
2023/09/28 21:50:00, 6.5,19.7
2023/09/28 22:00:00, 7.0,19.8
2023/09/28 22:10:00, 7.3,19.7
2023/09/28 22:20:00, 7.8,19.8
2023/09/28 22:30:00, 8.3,19.5
2023/09/28 22:40:00, 8.4,19.5
2023/09/28 22:50:00, 8.4,19.8
2023/09/28 23:00:00, 8.5,19.7
2023/09/28 23:10:00, 8.6,19.7
2023/09/28 23:20:00, 8.5,19.6
2023/09/28 23:30:00, 8.0,20.4
2023/09/28 23:40:00, 7.3,19.7
2023/09/28 23:50:00, 6.7,19.4
